Total_Precipitation_Accumulation
0.09 0.09 0.09 0.08 0.08 0.08 0.09 0.10 0.14 0.18 0.18 0.16 0.13 0.11 0.09 0.08 0.08 0.06 0.04 0.04 0.04 0.03 0.03 0.03 0.03 0.03 0.04 0.05 0.06 0.07 0.08 0.08 0.10 0.12 0.17 0.26 0.34 0.40
0.10 0.11 0.12 0.12 0.13 0.14 0.15 0.15 0.16 0.18 0.18 0.14 0.12 0.10 0.08 0.07 0.06 0.05 0.04 0.05 0.04 0.04 0.04 0.05 0.05 0.04 0.04 0.06 0.07 0.09 0.10 0.11 0.11 0.13 0.15 0.18 0.25 0.33
0.17 0.17 0.17 0.17 0.16 0.14 0.14 0.13 0.12 0.14 0.17 0.15 0.12 0.11 0.10 0.09 0.08 0.07 0.07 0.08 0.07 0.08 0.09 0.09 0.07 0.07 0.08 0.09 0.11 0.12 0.13 0.13 0.13 0.13 0.14 0.16 0.17 0.21
0.18 0.18 0.17 0.16 0.17 0.16 0.15 0.14 0.14 0.15 0.16 0.16 0.12 0.09 0.09 0.08 0.09 0.11 0.08 0.06 0.08 0.08 0.11 0.11 0.11 0.11 0.11 0.11 0.10 0.10 0.10 0.09 0.10 0.12 0.14 0.16 0.19 0.21
0.15 0.14 0.12 0.11 0.11 0.11 0.10 0.09 0.08 0.08 0.11 0.14 0.11 0.09 0.08 0.08 0.13 0.13 0.12 0.16 0.11 0.11 0.11 0.10 0.09 0.08 0.07 0.07 0.07 0.06 0.06 0.05 0.05 0.06 0.08 0.11 0.14 0.17
0.07 0.06 0.05 0.05 0.07 0.08 0.08 0.08 0.09 0.10 0.12 0.16 0.15 0.12 0.10 0.10 0.18 0.19 0.15 0.15 0.14 0.10 0.10 0.09 0.08 0.06 0.05 0.05 0.05 0.05 0.04 0.04 0.04 0.05 0.05 0.05 0.06 0.07
0.02 0.02 0.02 0.03 0.05 0.06 0.06 0.08 0.13 0.16 0.18 0.20 0.18 0.14 0.12 0.16 0.21 0.21 0.18 0.13 0.09 0.09 0.13 0.12 0.14 0.13 0.13 0.12 0.09 0.06 0.04 0.03 0.03 0.03 0.03 0.04 0.04 0.04
0.02 0.02 0.02 0.02 0.02 0.02 0.05 0.10 0.16 0.19 0.20 0.21 0.20 0.21 0.19 0.22 0.25 0.23 0.23 0.22 0.18 0.13 0.19 0.14 0.16 0.17 0.17 0.19 0.16 0.09 0.06 0.05 0.04 0.03 0.02 0.02 0.03 0.03
0.04 0.04 0.03 0.02 0.03 0.05 0.06 0.07 0.08 0.09 0.15 0.23 0.26 0.26 0.27 0.29 0.32 0.29 0.30 0.32 0.26 0.21 0.29 0.23 0.17 0.18 0.16 0.16 0.15 0.11 0.09 0.07 0.05 0.04 0.03 0.02 0.02 0.03
0.04 0.04 0.05 0.05 0.06 0.06 0.04 0.05 0.08 0.13 0.13 0.16 0.24 0.25 0.25 0.26 0.29 0.31 0.32 0.32 0.27 0.27 0.38 0.34 0.19 0.17 0.14 0.22 0.22 0.15 0.11 0.10 0.08 0.06 0.04 0.03 0.03 0.03
0.04 0.03 0.04 0.07 0.07 0.07 0.05 0.08 0.13 0.18 0.11 0.10 0.16 0.22 0.24 0.27 0.28 0.31 0.40 0.47 0.38 0.26 0.35 0.40 0.28 0.22 0.17 0.22 0.24 0.19 0.15 0.13 0.09 0.07 0.06 0.07 0.07 0.06
0.05 0.08 0.06 0.06 0.05 0.05 0.04 0.11 0.19 0.21 0.19 0.23 0.31 0.35 0.37 0.45 0.43 0.41 0.49 0.52 0.47 0.42 0.39 0.43 0.38 0.35 0.30 0.21 0.23 0.25 0.25 0.21 0.15 0.12 0.10 0.10 0.12 0.14
0.08 0.15 0.16 0.08 0.05 0.05 0.06 0.11 0.18 0.16 0.22 0.36 0.43 0.43 0.44 0.48 0.47 0.43 0.46 0.51 0.55 0.59 0.51 0.48 0.45 0.45 0.46 0.31 0.19 0.21 0.26 0.31 0.32 0.33 0.29 0.22 0.18 0.17
0.13 0.17 0.17 0.09 0.07 0.09 0.11 0.14 0.16 0.22 0.35 0.46 0.48 0.46 0.42 0.41 0.41 0.38 0.41 0.47 0.54 0.56 0.50 0.49 0.51 0.48 0.43 0.33 0.26 0.21 0.26 0.37 0.49 0.57 0.54 0.45 0.32 0.26
0.11 0.10 0.11 0.12 0.15 0.25 0.23 0.21 0.26 0.39 0.47 0.49 0.49 0.47 0.39 0.34 0.30 0.29 0.33 0.43 0.51 0.46 0.38 0.36 0.42 0.41 0.38 0.35 0.36 0.34 0.32 0.37 0.51 0.64 0.67 0.61 0.50 0.38
0.10 0.14 0.21 0.27 0.31 0.38 0.42 0.46 0.48 0.47 0.43 0.47 0.46 0.40 0.29 0.25 0.25 0.27 0.32 0.37 0.43 0.44 0.36 0.30 0.32 0.33 0.35 0.32 0.34 0.38 0.37 0.47 0.55 0.63 0.72 0.75 0.65 0.47
0.06 0.17 0.32 0.39 0.44 0.48 0.51 0.54 0.57 0.51 0.45 0.43 0.42 0.38 0.31 0.29 0.26 0.25 0.28 0.30 0.36 0.40 0.36 0.31 0.30 0.29 0.25 0.24 0.31 0.34 0.35 0.45 0.58 0.65 0.71 0.83 0.83 0.63
0.12 0.26 0.33 0.37 0.41 0.42 0.42 0.45 0.50 0.50 0.43 0.38 0.38 0.35 0.30 0.29 0.29 0.28 0.28 0.31 0.36 0.37 0.33 0.29 0.25 0.22 0.19 0.22 0.33 0.39 0.39 0.52 0.63 0.61 0.57 0.70 0.90 0.83
0.24 0.32 0.34 0.37 0.40 0.37 0.36 0.41 0.45 0.41 0.35 0.32 0.31 0.28 0.26 0.24 0.25 0.27 0.26 0.26 0.27 0.28 0.26 0.21 0.19 0.20 0.21 0.29 0.41 0.58 0.57 0.55 0.54 0.52 0.53 0.62 0.85 0.89
0.31 0.31 0.32 0.34 0.37 0.37 0.33 0.32 0.32 0.27 0.24 0.24 0.24 0.22 0.21 0.22 0.22 0.23 0.20 0.17 0.20 0.22 0.21 0.18 0.16 0.20 0.25 0.32 0.55 0.73 0.70 0.52 0.44 0.52 0.62 0.68 0.80 0.81
0.26 0.26 0.28 0.28 0.29 0.32 0.28 0.24 0.21 0.18 0.16 0.16 0.17 0.18 0.18 0.17 0.17 0.16 0.13 0.09 0.13 0.16 0.19 0.20 0.20 0.19 0.20 0.20 0.37 0.60 0.67 0.73 0.63 0.60 0.65 0.62 0.53 0.41
0.22 0.24 0.22 0.19 0.21 0.21 0.17 0.16 0.16 0.14 0.12 0.11 0.12 0.12 0.12 0.13 0.12 0.10 0.09 0.09 0.09 0.10 0.13 0.16 0.16 0.15 0.16 0.19 0.32 0.49 0.53 0.51 0.51 0.56 0.58 0.43 0.28 0.29
0.20 0.20 0.18 0.16 0.15 0.14 0.12 0.10 0.09 0.09 0.09 0.11 0.10 0.08 0.07 0.07 0.06 0.04 0.04 0.04 0.04 0.04 0.06 0.09 0.10 0.10 0.10 0.13 0.19 0.26 0.26 0.21 0.16 0.18 0.34 0.45 0.40 0.44